[[{"header":{"parameterUnit":"m.s-1","parameterCategory":2,"la1":30.2991,"la2":30.254,"lo1":-89.0895,"lo2":-89.0444,"dy":0.0017,"dx":0.0017,"nx":28,"ny":28,"refTime":"2024-08-24T09:00:00:Z","depth":"0","parameterNumber":2,"parameterNumberName":"U-component_of_CURRENTS"},"data":[0,0,0,0,0,0,0,0,0,0,0,0,0,0,0,0,0,0,0,0,0,0,0,0,0,0,0,0,0,0,0,0,0,0,0,0,0,0,0,0,0,0,0,0,0,0,0,0,0,0,0,0,0,0,0,0,0,0,-0.1873,-0.1874,0,-0.1878,-0.1878,-0.1878,-0.1844,-0.1844,-0.1843,-0.1843,-0.1811,-0.1811,-0.1811,0,0,0,0,0,0,0,0,0,0,0,0,0,-0.1814,-0.1815,-0.1873,-0.1874,-0.1874,-0.1879,-0.1878,-0.1878,-0.1845,-0.1844,-0.1843,-0.1842,-0.1811,-0.1811,-0.1811,0,0,0,0,0,0,0,0,0,0,0,0,0,-0.1828,-0.1815,-0.1873,-0.186,-0.1859,-0.1879,-0.1878,-0.1878,-0.1845,-0.1844,-0.1843,-0.1842,-0.1811,-0.1811,-0.1811,-0.1828,0,0,-0.1809,-0.1809,0,0,0,0,0,0,0,0,-0.1827,-0.183,-0.1862,-0.1861,-0.186,-0.1863,-0.1846,-0.1861,-0.1845,-0.1847,-0.1843,-0.1841,-0.1828,-0.1826,-0.1825,-0.1826,-0.1825,-0.1809,-0.1809,-0.1809,-0.1809,0,0,0,0,0,0,0,-0.1826,-0.1829,-0.1872,-0.1862,-0.1862,-0.1847,-0.1848,-0.1848,-0.1839,-0.1847,-0.1845,-0.1851,-0.1827,-0.1825,-0.1824,-0.1824,-0.1809,-0.1809,-0.1809,-0.1809,-0.1851,-0.1852,0,0,0,0,0,0,-0.1835,-0.1829,-0.1872,-0.1872,-0.1845,-0.185,-0.185,-0.186,-0.184,-0.1837,-0.1852,-0.185,-0.1827,-0.1824,-0.1823,-0.1857,-0.1809,-0.1809,-0.1809,-0.185,-0.1851,-0.1853,0,0,0,0,0,0,-0.1834,-0.1839,-0.1872,-0.1853,-0.1856,-0.1852,-0.1863,-0.1861,-0.1857,-0.1845,-0.1841,-0.185,-0.1826,-0.1823,-0.183,-0.1855,-0.1809,-0.1808,-0.1848,-0.185,-0.1852,-0.1916,0,0,0,0,0,0,-0.1832,-0.1839,-0.1847,-0.1854,-0.1858,-0.1889,-0.1865,-0.1862,-0.1864,-0.186,-0.1843,-0.1839,-0.1825,-0.1831,-0.183,-0.1853,-0.1808,-0.1846,-0.1849,-0.1851,-0.1912,-0.192,-0.1927,0,0,0,0,0,-0.183,-0.1847,-0.1847,-0.1852,-0.187,-0.189,-0.1891,-0.1881,-0.1865,-0.1871,-0.186,-0.1839,-0.1846,-0.1832,-0.183,-0.1854,-0.1845,-0.1848,-0.1851,-0.1909,-0.1918,-0.1926,0,0,0,0,0,0,-0.1824,-0.1846,-0.1846,-0.1868,-0.1881,-0.1885,-0.1889,-0.1885,-0.1881,-0.1873,-0.1855,-0.1851,-0.1868,-0.1854,-0.1839,-0.1875,-0.1843,-0.1846,-0.1887,-0.1896,-0.1903,-0.1906,-0.1808,0,0,0,0,0,-0.183,-0.1844,-0.1865,-0.1879,-0.1888,-0.1888,-0.1893,-0.1891,-0.1892,-0.1888,-0.1878,-0.1872,-0.1881,-0.1881,-0.1882,-0.19,-0.1889,-0.1916,-0.1923,-0.1929,-0.1932,-0.1945,-0.1953,-0.1862,-0.1862,-0.1862,0,0,-0.1831,-0.1844,-0.1852,-0.1878,-0.1882,-0.1907,-0.1888,-0.19,-0.1922,-0.1887,-0.1903,-0.1896,-0.1892,-0.1915,-0.1921,-0.1904,-0.195,-0.1933,-0.1939,-0.1937,-0.1949,-0.1958,-0.1965,-0.1864,-0.1864,-0.1864,0,0,-0.1843,-0.1853,-0.1871,-0.1889,-0.1908,-0.1916,-0.1922,-0.1933,-0.1937,-0.1957,-0.1943,-0.1956,-0.1955,-0.1968,-0.1973,-0.2022,-0.1989,-0.2016,-0.2054,-0.2067,-0.2075,-0.2081,-0.2081,-0.2086,-0.2019,-0.2019,-0.2019,0,-0.1843,-0.1871,-0.1879,-0.1905,-0.1923,-0.1923,-0.1951,-0.1966,-0.1977,-0.1991,-0.1969,-0.1993,-0.1987,-0.2031,-0.2044,-0.204,-0.2028,-0.2021,-0.2076,-0.2082,-0.2088,-0.2086,-0.2091,-0.2022,-0.2022,-0.2022,-0.2021,0,-0.1873,-0.1897,-0.1909,-0.1943,-0.1966,-0.1987,-0.2016,-0.2034,-0.2034,-0.2048,-0.2081,-0.2078,-0.2089,-0.2097,-0.2082,-0.2126,-0.2099,-0.2084,-0.2053,-0.2101,-0.2096,-0.21,-0.2027,-0.2026,-0.2025,-0.2024,0,0,-0.1862,-0.192,-0.1921,-0.1945,-0.1987,-0.2007,-0.2053,-0.2097,-0.2127,-0.2137,-0.2174,-0.2194,-0.2181,-0.2185,-0.2175,-0.2188,-0.2218,-0.2148,-0.2147,-0.2145,-0.2231,-0.2227,-0.2231,-0.2204,-0.2205,-0.2206,-0.2213,0,-0.1878,-0.1931,-0.1959,-0.2008,-0.2038,-0.2067,-0.2113,-0.2153,-0.2176,-0.2212,-0.2225,-0.2249,-0.222,-0.2221,-0.2233,-0.2219,-0.2232,-0.2216,-0.2187,-0.2186,-0.2175,-0.2237,-0.2171,-0.2172,-0.2217,-0.2218,-0.2218,0,-0.1892,-0.1927,-0.1978,-0.2046,-0.2062,-0.2094,-0.2159,-0.2199,-0.226,-0.2279,-0.2306,-0.2306,-0.2333,-0.2294,-0.2303,-0.2287,-0.2264,-0.2252,-0.2251,-0.2227,-0.2191,-0.2132,-0.2178,-0.2148,-0.2225,-0.2224,-0.2224,0,-0.1867,-0.1938,-0.1974,-0.1997,-0.2076,-0.2104,-0.2143,-0.2212,-0.2253,-0.2311,-0.2338,-0.2367,-0.2373,-0.2361,-0.2332,-0.2312,-0.2333,-0.2304,-0.2284,-0.2283,-0.2211,-0.2202,-0.2223,-0.2316,-0.2316,-0.2316,-0.2316,0,-0.1867,-0.1896,-0.1963,-0.1983,-0.2033,-0.2092,-0.2149,-0.2197,-0.227,-0.232,-0.2356,-0.2393,-0.2386,-0.2395,-0.2359,-0.2341,-0.2355,-0.2305,-0.2294,-0.2233,-0.2226,-0.2182,-0.2182,-0.2316,-0.2316,-0.2316,-0.2316,0,-0.1826,-0.1873,-0.1917,-0.1995,-0.2019,-0.2048,-0.2139,-0.2183,-0.2257,-0.232,-0.2336,-0.241,-0.2429,-0.2426,-0.2414,-0.2379,-0.2326,-0.2349,-0.2274,-0.2255,-0.2207,-0.2213,-0.2208,-0.215,-0.233,-0.2331,-0.2331,0,-0.1809,-0.1824,-0.1899,-0.192,-0.195,-0.2008,-0.2051,-0.2151,-0.2202,-0.2325,-0.235,-0.2412,-0.245,-0.2455,-0.2414,-0.238,-0.2333,-0.2289,-0.2252,-0.2215,-0.2213,-0.2191,-0.214,-0.2177,-0.2175,-0.2175,-0.2174,0,-0.1764,-0.1783,-0.1816,-0.186,-0.1902,-0.1956,-0.2026,-0.2072,-0.2188,-0.226,-0.235,-0.2397,-0.244,-0.2406,-0.2383,-0.2336,-0.2238,-0.2269,-0.2247,-0.2122,-0.2081,-0.2015,-0.2155,-0.2165,-0.2166,-0.2167,-0.2167,-0.2167,-0.1711,-0.1716,-0.1751,-0.1786,-0.1834,-0.1879,-0.1894,-0.1995,-0.2073,-0.2166,-0.2277,-0.2343,-0.2365,-0.2341,-0.2304,-0.2199,-0.2199,-0.2113,-0.2129,-0.2115,-0.2047,-0.2177,-0.2168,-0.2169,-0.217,-0.2171,-0.2171,0,-0.164,-0.1651,-0.1676,-0.1712,-0.1724,-0.178,-0.1852,-0.1856,-0.1916,-0.2056,-0.2138,-0.2244,-0.2221,-0.2225,-0.2159,-0.2073,-0.199,-0.2002,-0.194,-0.1897,-0.2019,-0.2,-0.1935,-0.1935,-0.1935,-0.1935,-0.1935,-0.1935,-0.1602,-0.1591,-0.1604,-0.1585,-0.1604,-0.1582,-0.1597,-0.1633,-0.1707,-0.1814,-0.1931,-0.209,-0.2097,-0.2224,-0.2111,-0.2005,-0.1911,-0.1857,-0.1852,-0.193,-0.1941,-0.1951,-0.1932,-0.1853,-0.1853,-0.1653,-0.1652,-0.1651]},{"header":{"parameterUnit":"m.s-1","parameterCategory":2,"la1":30.2991,"la2":30.254,"lo1":-89.0895,"lo2":-89.0444,"dy":0.0017,"dx":0.0017,"nx":28,"ny":28,"refTime":"2024-08-24T09:00:00:Z","depth":"0","parameterNumber":3,"parameterNumberName":"V-component_of_CURRENTS"},"data":[0,0,0,0,0,0,0,0,0,0,0,0,0,0,0,0,0,0,0,0,0,0,0,0,0,0,0,0,0,0,0,0,0,0,0,0,0,0,0,0,0,0,0,0,0,0,0,0,0,0,0,0,0,0,0,0,0,0,-0.0185,-0.0184,0,-0.0115,-0.0115,-0.0114,-0.0077,-0.0077,-0.0077,-0.0077,-0.0006,-0.0005,-0.0003,0,0,0,0,0,0,0,0,0,0,0,0,0,-0.0225,-0.0225,-0.0185,-0.0184,-0.0183,-0.0116,-0.0115,-0.0114,-0.0077,-0.0077,-0.0077,-0.0077,-0.0007,-0.0005,-0.0003,0,0,0,0,0,0,0,0,0,0,0,0,0,-0.0188,-0.0225,-0.0185,-0.0157,-0.0153,-0.0116,-0.0115,-0.0113,-0.0077,-0.0077,-0.0077,-0.0077,-0.0008,-0.0005,-0.0002,0.0011,0,0,0.0006,0.0007,0,0,0,0,0,0,0,0,-0.019,-0.0186,-0.0162,-0.0159,-0.0155,-0.0104,-0.0103,-0.0072,-0.0077,-0.0106,-0.0077,-0.0076,-0.0039,-0.0034,-0.0021,0.0014,0.0017,0.0006,0.0008,0.0009,0.001,0,0,0,0,0,0,0,-0.0193,-0.0189,-0.0158,-0.0161,-0.0156,-0.0126,-0.0121,-0.0097,-0.0075,-0.0104,-0.0101,-0.0092,-0.0037,-0.0024,-0.0019,0.0018,0.0006,0.0008,0.001,0.0011,0.0075,0.0075,0,0,0,0,0,0,-0.0204,-0.0192,-0.016,-0.0156,-0.0172,-0.0126,-0.012,-0.0121,-0.0075,-0.0067,-0.0093,-0.0091,-0.0029,-0.0023,-0.0017,0.0001,0.0009,0.0011,0.0013,0.0075,0.0075,0.0075,0,0,0,0,0,0,-0.0205,-0.0202,-0.0163,-0.0171,-0.0164,-0.0126,-0.0126,-0.012,-0.0107,-0.0066,-0.0059,-0.0087,-0.0028,-0.0021,0.0004,0.0004,0.0013,0.0015,0.0075,0.0075,0.0075,0.0037,0,0,0,0,0,0,-0.0207,-0.0203,-0.0206,-0.0172,-0.0164,-0.0149,-0.0126,-0.0118,-0.0102,-0.0099,-0.0059,-0.0052,-0.0028,-0.0,0.0007,0.0008,0.0017,0.0074,0.0075,0.0075,0.0038,0.0036,0.0034,0,0,0,0,0,-0.0209,-0.0215,-0.0207,-0.0202,-0.017,-0.0149,-0.0142,-0.0114,-0.0102,-0.0101,-0.0071,-0.0054,0.0006,0.0002,0.001,0.0012,0.0074,0.0075,0.0075,0.0039,0.0036,0.0034,0,0,0,0,0,0,-0.0232,-0.021,-0.0201,-0.02,-0.0179,-0.0143,-0.0136,-0.0117,-0.0092,-0.0089,-0.0051,-0.0043,-0.0021,0.0001,-0.0004,0.0031,0.0043,0.0045,0.0013,0.001,0.0008,-0.0005,0.0019,0,0,0,0,0,-0.024,-0.0241,-0.0213,-0.0213,-0.0204,-0.0171,-0.0158,-0.0141,-0.0114,-0.0102,-0.0074,-0.0043,-0.0013,0.0001,0.0028,0.0047,0.0075,0.0053,0.0051,0.0049,0.0044,0.0094,0.0096,0.0076,0.0076,0.0076,0,0,-0.0249,-0.0237,-0.0237,-0.0219,-0.0199,-0.0196,-0.0163,-0.0149,-0.0143,-0.0099,-0.0083,-0.005,-0.001,0.0012,0.0024,0.0029,0.0069,0.0049,0.0047,0.0043,0.0094,0.0096,0.0098,0.0076,0.0076,0.0076,0,0,-0.0273,-0.0259,-0.0269,-0.0256,-0.0233,-0.0213,-0.0213,-0.018,-0.0161,-0.0141,-0.0105,-0.0072,-0.0035,-0.0002,0.002,0.0022,0.0056,0.0028,0.0007,0.0056,0.0058,0.006,0.0094,0.01,0.0027,0.0027,0.0027,0,-0.0286,-0.0296,-0.0268,-0.0273,-0.0267,-0.0227,-0.0236,-0.021,-0.0174,-0.0158,-0.0145,-0.0074,-0.004,-0.0002,-0.0001,0.0017,0.0044,0.0013,0.0053,0.0055,0.0058,0.0093,0.01,0.0025,0.0026,0.0026,0.0026,0,-0.0317,-0.0324,-0.0327,-0.0326,-0.0314,-0.0314,-0.0279,-0.0266,-0.0239,-0.0207,-0.0164,-0.0109,-0.0068,-0.0049,-0.0024,0.0013,0.0025,0.0044,0.0057,0.0058,0.0095,0.0102,0.0023,0.0023,0.0024,0.0024,0,0,-0.0351,-0.0352,-0.0353,-0.0366,-0.0342,-0.0341,-0.0328,-0.0304,-0.0298,-0.0244,-0.0222,-0.0157,-0.0119,-0.0092,-0.0048,-0.0005,0.0041,0.0022,0.0025,0.0051,0.0139,0.0168,0.0179,0.0068,0.0069,0.007,0.0154,0,-0.0386,-0.0419,-0.0401,-0.0429,-0.0444,-0.0407,-0.0401,-0.037,-0.0334,-0.0302,-0.022,-0.018,-0.0136,-0.0114,-0.0062,0.0016,0.0059,0.0015,0.0138,0.0141,0.0164,0.0189,0.0215,0.0294,0.0162,0.0163,0.0164,0,-0.0422,-0.0442,-0.0477,-0.0491,-0.0492,-0.0496,-0.0486,-0.0472,-0.0408,-0.0375,-0.0311,-0.0248,-0.0166,-0.0132,0.0005,-0.0026,0.0047,0.011,0.0115,0.016,0.0185,0.0274,0.0313,0.045,0.0176,0.0175,0.0174,0,-0.047,-0.0494,-0.0528,-0.0531,-0.0536,-0.054,-0.0535,-0.0494,-0.0486,-0.0412,-0.0395,-0.0286,-0.0228,-0.0119,0.0015,0.001,0.0164,0.0177,0.0272,0.0274,0.0329,0.0335,0.0512,0.0268,0.0268,0.0267,0.0267,0,-0.0516,-0.0543,-0.0555,-0.0576,-0.0617,-0.0589,-0.0613,-0.059,-0.0548,-0.0542,-0.0432,-0.0399,-0.0221,-0.0111,0.0004,0.0166,0.0161,0.0273,0.0304,0.0316,0.0319,0.0466,0.0519,0.0271,0.027,0.0269,0.0269,0,-0.0561,-0.0567,-0.0615,-0.0634,-0.0644,-0.0669,-0.0676,-0.0693,-0.0636,-0.0624,-0.06,-0.0469,-0.0314,-0.014,0.0049,0.0153,0.0385,0.0355,0.0352,0.038,0.0588,0.0636,0.0825,0.0884,0.0473,0.0474,0.0475,0,-0.0587,-0.0615,-0.0668,-0.0706,-0.0717,-0.0748,-0.0777,-0.0742,-0.075,-0.0674,-0.067,-0.0514,-0.0404,-0.0103,0.0127,0.0353,0.0452,0.0494,0.0494,0.0614,0.0691,0.072,0.0757,0.0552,0.0554,0.0555,0.0556,0,-0.0638,-0.0654,-0.0698,-0.0783,-0.0829,-0.0879,-0.0902,-0.092,-0.0875,-0.0855,-0.0789,-0.069,-0.0365,-0.0071,0.0248,0.0377,0.0594,0.0528,0.0667,0.0782,0.0812,0.0878,0.0469,0.0568,0.0567,0.0566,0.0565,0.0565,-0.0673,-0.0721,-0.0784,-0.0863,-0.0928,-0.0995,-0.1037,-0.1052,-0.1068,-0.102,-0.0889,-0.0718,-0.0245,0.0223,0.0391,0.0755,0.0709,0.0845,0.0896,0.0917,0.0974,0.0581,0.0704,0.0703,0.0703,0.0703,0.0703,0,-0.0717,-0.0776,-0.0862,-0.0959,-0.1049,-0.1058,-0.1119,-0.1151,-0.1184,-0.1086,-0.0991,-0.0498,-0.0032,0.0408,0.0949,0.1124,0.1149,0.1198,0.1259,0.128,0.0958,0.0962,0.1128,0.1128,0.1128,0.1128,0.1128,0.1127,-0.0743,-0.0834,-0.0886,-0.1044,-0.1114,-0.1217,-0.1255,-0.1292,-0.124,-0.1079,-0.0827,-0.059,0.0086,0.0996,0.1487,0.1504,0.1634,0.161,0.1677,0.1472,0.1443,0.1415,0.1434,0.1696,0.1697,0.1978,0.1982,0.1984]}],[{"header":{"parameterUnit":"m.s-1","parameterCategory":2,"la1":30.2991,"la2":30.254,"lo1":-89.0895,"lo2":-89.0444,"dy":0.0017,"dx":0.0017,"nx":28,"ny":28,"refTime":"2024-08-24T09:00:00:Z","depth":"2","parameterNumber":2,"parameterNumberName":"U-component_of_CURRENTS"},"data":[0,0,0,0,0,0,0,0,0,0,0,0,0,0,0,0,0,0,0,0,0,0,0,0,0,0,0,0,0,0,0,0,0,0,0,0,0,0,0,0,0,0,0,0,0,0,0,0,0,0,0,0,0,0,0,0,0,0,-0.1713,-0.1713,0,-0.172,-0.172,-0.172,-0.1692,-0.1691,-0.1691,-0.169,-0.1664,-0.1664,-0.1664,0,0,0,0,0,0,0,0,0,0,0,0,0,-0.1657,-0.1658,-0.1713,-0.1713,-0.1713,-0.172,-0.172,-0.172,-0.1692,-0.1691,-0.1691,-0.169,-0.1665,-0.1664,-0.1664,0,0,0,0,0,0,0,0,0,0,0,0,0,-0.1671,-0.1658,-0.1713,-0.1703,-0.1702,-0.172,-0.172,-0.172,-0.1692,-0.1691,-0.1691,-0.169,-0.1665,-0.1664,-0.1664,-0.1679,0,0,-0.1663,-0.1663,0,0,0,0,0,0,0,0,-0.1671,-0.1673,-0.1704,-0.1703,-0.1703,-0.1707,-0.1691,-0.1705,-0.1692,-0.1693,-0.169,-0.1689,-0.1678,-0.1677,-0.1676,-0.1677,-0.1676,-0.1663,-0.1663,-0.1663,-0.1663,0,0,0,0,0,0,0,-0.167,-0.1673,-0.1712,-0.1704,-0.1704,-0.1692,-0.1693,-0.1693,-0.1687,-0.1692,-0.1691,-0.1698,-0.1677,-0.1676,-0.1675,-0.1676,-0.1663,-0.1663,-0.1663,-0.1663,-0.1704,-0.1705,0,0,0,0,0,0,-0.1677,-0.1672,-0.1712,-0.1713,-0.1688,-0.1694,-0.1695,-0.1704,-0.1687,-0.1685,-0.1698,-0.1696,-0.1677,-0.1676,-0.1674,-0.171,-0.1663,-0.1663,-0.1663,-0.1703,-0.1704,-0.1706,0,0,0,0,0,0,-0.1676,-0.1681,-0.1712,-0.1695,-0.1698,-0.1697,-0.1706,-0.1705,-0.1703,-0.1693,-0.1689,-0.1699,-0.1677,-0.1675,-0.1683,-0.1708,-0.1663,-0.1662,-0.1701,-0.1703,-0.1705,-0.1769,0,0,0,0,0,0,-0.1674,-0.168,-0.1688,-0.1696,-0.17,-0.173,-0.1707,-0.1705,-0.171,-0.1707,-0.1693,-0.1689,-0.1676,-0.1684,-0.1683,-0.1707,-0.1662,-0.17,-0.1702,-0.1705,-0.1766,-0.1773,-0.178,0,0,0,0,0,-0.1672,-0.1689,-0.1689,-0.1694,-0.1711,-0.1731,-0.1732,-0.1725,-0.1711,-0.1719,-0.171,-0.169,-0.1698,-0.1685,-0.1684,-0.1708,-0.1699,-0.1702,-0.1704,-0.1763,-0.1772,-0.178,0,0,0,0,0,0,-0.1668,-0.1688,-0.1688,-0.1709,-0.1723,-0.1728,-0.1733,-0.173,-0.1729,-0.1723,-0.1705,-0.1702,-0.172,-0.1707,-0.1692,-0.1727,-0.1696,-0.1699,-0.1741,-0.1749,-0.1756,-0.1758,-0.1662,0,0,0,0,0,-0.1673,-0.1686,-0.1706,-0.172,-0.173,-0.1732,-0.1737,-0.1737,-0.1739,-0.1737,-0.1729,-0.1724,-0.1733,-0.1734,-0.1734,-0.1753,-0.1742,-0.1768,-0.1775,-0.1781,-0.1783,-0.1795,-0.1803,-0.1715,-0.1715,-0.1715,0,0,-0.1675,-0.1687,-0.1694,-0.172,-0.1725,-0.175,-0.1732,-0.1746,-0.1768,-0.1735,-0.1754,-0.1748,-0.1743,-0.1766,-0.1773,-0.1756,-0.1802,-0.1785,-0.179,-0.1788,-0.1799,-0.1807,-0.1815,-0.1717,-0.1717,-0.1717,0,0,-0.1687,-0.1696,-0.1714,-0.1732,-0.1752,-0.176,-0.1767,-0.178,-0.1786,-0.1807,-0.1794,-0.1807,-0.1808,-0.1819,-0.1823,-0.187,-0.184,-0.1866,-0.1903,-0.1915,-0.1922,-0.1928,-0.193,-0.1936,-0.1869,-0.1869,-0.1869,0,-0.1688,-0.1714,-0.1722,-0.1748,-0.1765,-0.1768,-0.1796,-0.1811,-0.1825,-0.1839,-0.1819,-0.1844,-0.1838,-0.1879,-0.1892,-0.1888,-0.1878,-0.1871,-0.1924,-0.193,-0.1935,-0.1935,-0.1941,-0.1872,-0.1872,-0.1872,-0.1871,0,-0.1717,-0.174,-0.1752,-0.1786,-0.1808,-0.183,-0.1859,-0.1878,-0.1881,-0.1894,-0.1928,-0.1925,-0.1936,-0.1944,-0.193,-0.1972,-0.1948,-0.1932,-0.1902,-0.1948,-0.1945,-0.195,-0.1877,-0.1876,-0.1875,-0.1874,0,0,-0.1707,-0.1762,-0.1765,-0.1788,-0.1829,-0.1849,-0.1895,-0.1937,-0.1967,-0.198,-0.2015,-0.2036,-0.2024,-0.2028,-0.2019,-0.203,-0.2062,-0.1994,-0.1993,-0.1994,-0.2077,-0.2067,-0.207,-0.2049,-0.205,-0.2051,-0.2061,0,-0.1724,-0.1774,-0.1801,-0.1849,-0.1878,-0.1907,-0.1951,-0.1991,-0.2014,-0.205,-0.2063,-0.2087,-0.2061,-0.2063,-0.2075,-0.2063,-0.2075,-0.206,-0.2033,-0.2032,-0.2017,-0.2076,-0.1905,-0.1901,-0.2066,-0.2066,-0.2067,0,-0.1738,-0.1771,-0.182,-0.1884,-0.19,-0.1931,-0.1994,-0.2034,-0.2092,-0.2112,-0.214,-0.2141,-0.2168,-0.2132,-0.2142,-0.2128,-0.2107,-0.2096,-0.2096,-0.2066,-0.2031,-0.1881,-0.1903,-0.2074,-0.2073,-0.2073,-0.2072,0,-0.1714,-0.1782,-0.1817,-0.1839,-0.1914,-0.1942,-0.198,-0.2046,-0.2085,-0.2143,-0.217,-0.2199,-0.2208,-0.2197,-0.2172,-0.2153,-0.2175,-0.2147,-0.2125,-0.2123,-0.1962,-0.1945,-0.2159,-0.2159,-0.2159,-0.2159,-0.2159,0,-0.1714,-0.1743,-0.1807,-0.1826,-0.1874,-0.1931,-0.1985,-0.2032,-0.2103,-0.2149,-0.2187,-0.2223,-0.2221,-0.2231,-0.2199,-0.2181,-0.2197,-0.2145,-0.2134,-0.1982,-0.1967,-0.2099,-0.2092,-0.216,-0.216,-0.2159,-0.2159,0,-0.1676,-0.1721,-0.1763,-0.1838,-0.1861,-0.189,-0.1976,-0.2017,-0.209,-0.215,-0.2167,-0.224,-0.2259,-0.226,-0.2251,-0.2217,-0.22,-0.2188,-0.201,-0.198,-0.2129,-0.2126,-0.2166,-0.2165,-0.2165,-0.2165,-0.2165,0,-0.1661,-0.1675,-0.1747,-0.1768,-0.1797,-0.1852,-0.1893,-0.1989,-0.2036,-0.2154,-0.2177,-0.2238,-0.2271,-0.2277,-0.2228,-0.2194,-0.2213,-0.2014,-0.1961,-0.2149,-0.2134,-0.2131,-0.2127,-0.1765,-0.1761,-0.1759,-0.1757,0,-0.1619,-0.1638,-0.1669,-0.1711,-0.175,-0.1801,-0.1866,-0.1907,-0.2018,-0.2086,-0.2168,-0.2211,-0.2241,-0.2148,-0.2123,-0.2065,-0.2009,-0.1961,-0.2197,-0.1807,-0.1777,-0.1761,-0.1769,-0.1732,-0.1735,-0.1737,-0.1738,-0.1739,-0.157,-0.1575,-0.1607,-0.164,-0.1686,-0.1724,-0.1735,-0.1825,-0.1895,-0.1966,-0.2077,-0.209,-0.2082,-0.1983,-0.1891,-0.18,-0.193,-0.1809,-0.1814,-0.1822,-0.1792,-0.1765,-0.1712,-0.1714,-0.1716,-0.1717,-0.1719,0,-0.1503,-0.1513,-0.1536,-0.1568,-0.1575,-0.1632,-0.1694,-0.1684,-0.1732,-0.1823,-0.1886,-0.1754,-0.1724,-0.1705,-0.1549,-0.1528,-0.1469,-0.144,-0.1351,-0.1377,-0.14,-0.1344,-0.1146,-0.1145,-0.1143,-0.1141,0,0,-0.1467,-0.1455,-0.1465,-0.1442,-0.146,-0.1434,-0.1444,-0.1455,-0.1488,-0.1492,-0.1508,-0.1671,-0.1695,-0.144,-0.1367,-0.1232,-0.1283,-0.1168,-0.1629,-0.1551,-0.1571,-0.1619,-0.1566,0,0,0,0,0]},{"header":{"parameterUnit":"m.s-1","parameterCategory":2,"la1":30.2991,"la2":30.254,"lo1":-89.0895,"lo2":-89.0444,"dy":0.0017,"dx":0.0017,"nx":28,"ny":28,"refTime":"2024-08-24T09:00:00:Z","depth":"2","parameterNumber":3,"parameterNumberName":"V-component_of_CURRENTS"},"data":[0,0,0,0,0,0,0,0,0,0,0,0,0,0,0,0,0,0,0,0,0,0,0,0,0,0,0,0,0,0,0,0,0,0,0,0,0,0,0,0,0,0,0,0,0,0,0,0,0,0,0,0,0,0,0,0,0,0,-0.0141,-0.014,0,-0.0073,-0.0072,-0.0071,-0.0034,-0.0034,-0.0034,-0.0034,0.0036,0.0038,0.004,0,0,0,0,0,0,0,0,0,0,0,0,0,-0.0176,-0.0176,-0.0141,-0.014,-0.0139,-0.0073,-0.0072,-0.0071,-0.0034,-0.0034,-0.0034,-0.0034,0.0036,0.0038,0.004,0,0,0,0,0,0,0,0,0,0,0,0,0,-0.014,-0.0176,-0.0141,-0.0113,-0.011,-0.0073,-0.0072,-0.0071,-0.0034,-0.0034,-0.0034,-0.0034,0.0035,0.0037,0.004,0.0054,0,0,0.0048,0.0049,0,0,0,0,0,0,0,0,-0.0142,-0.0139,-0.0118,-0.0115,-0.0111,-0.0062,-0.0058,-0.0029,-0.0034,-0.0063,-0.0034,-0.0034,0.0004,0.0009,0.0021,0.0057,0.006,0.0048,0.005,0.0051,0.0052,0,0,0,0,0,0,0,-0.0144,-0.0141,-0.0114,-0.0117,-0.0113,-0.0082,-0.0077,-0.0052,-0.0031,-0.0061,-0.0058,-0.005,0.0005,0.0018,0.0023,0.0061,0.0048,0.0051,0.0052,0.0053,0.0113,0.0113,0,0,0,0,0,0,-0.0156,-0.0144,-0.0116,-0.0112,-0.0126,-0.0081,-0.0076,-0.0078,-0.0032,-0.0024,-0.005,-0.0048,0.0014,0.002,0.0026,0.004,0.0051,0.0054,0.0055,0.0113,0.0113,0.0113,0,0,0,0,0,0,-0.0157,-0.0155,-0.0119,-0.0125,-0.0119,-0.0081,-0.0083,-0.0077,-0.0064,-0.0024,-0.0016,-0.0045,0.0014,0.0022,0.0046,0.0044,0.0055,0.0057,0.0113,0.0113,0.0113,0.0073,0,0,0,0,0,0,-0.0159,-0.0156,-0.0159,-0.0127,-0.0119,-0.0105,-0.0083,-0.0075,-0.0059,-0.0057,-0.0017,-0.001,0.0015,0.0042,0.0049,0.0047,0.0059,0.0113,0.0113,0.0113,0.0074,0.0071,0.0069,0,0,0,0,0,-0.016,-0.0168,-0.016,-0.0156,-0.0126,-0.0105,-0.0099,-0.0071,-0.0059,-0.0059,-0.0029,-0.0011,0.0047,0.0044,0.0052,0.0051,0.0113,0.0113,0.0113,0.0075,0.0072,0.0069,0,0,0,0,0,0,-0.0184,-0.0163,-0.0154,-0.0155,-0.0135,-0.0099,-0.0093,-0.0075,-0.005,-0.0047,-0.0009,-0.0001,0.002,0.0041,0.0037,0.0069,0.0082,0.0084,0.005,0.0048,0.0045,0.0032,0.0062,0,0,0,0,0,-0.0192,-0.0194,-0.0167,-0.0169,-0.016,-0.0128,-0.0115,-0.0098,-0.0071,-0.006,-0.0032,-0.0001,0.0026,0.004,0.0066,0.0084,0.0112,0.0088,0.0086,0.0083,0.0078,0.0125,0.0126,0.0113,0.0113,0.0113,0,0,-0.0201,-0.019,-0.0191,-0.0174,-0.0155,-0.0152,-0.012,-0.0106,-0.0101,-0.0056,-0.0042,-0.001,0.0029,0.0049,0.006,0.0066,0.0102,0.0083,0.0081,0.0077,0.0125,0.0126,0.0127,0.0113,0.0113,0.0113,0,0,-0.0225,-0.0213,-0.0223,-0.021,-0.0189,-0.017,-0.0169,-0.0138,-0.012,-0.0101,-0.0066,-0.0035,0.0002,0.0032,0.0052,0.0051,0.0087,0.0057,0.0035,0.008,0.0081,0.0083,0.0118,0.0123,0.0056,0.0056,0.0056,0,-0.0238,-0.0249,-0.0222,-0.0228,-0.0222,-0.0183,-0.0193,-0.0168,-0.0133,-0.0118,-0.0104,-0.0038,-0.0006,0.0028,0.0028,0.0045,0.0073,0.0042,0.0076,0.0078,0.0081,0.0117,0.0123,0.0054,0.0054,0.0055,0.0055,0,-0.0269,-0.0276,-0.028,-0.0279,-0.0268,-0.0269,-0.0236,-0.0225,-0.0199,-0.0168,-0.0129,-0.0077,-0.0039,-0.0021,0.0003,0.0035,0.005,0.0067,0.0082,0.008,0.0118,0.0125,0.0051,0.0052,0.0053,0.0053,0,0,-0.0303,-0.0304,-0.0306,-0.0319,-0.0297,-0.0295,-0.0286,-0.0264,-0.026,-0.0208,-0.0189,-0.013,-0.0093,-0.0068,-0.0026,0.0014,0.0057,0.0042,0.0045,0.0073,0.0151,0.0177,0.0187,0.0081,0.0082,0.0083,0.017,0,-0.0338,-0.037,-0.0353,-0.0381,-0.0396,-0.0361,-0.0358,-0.033,-0.0296,-0.0267,-0.0191,-0.0155,-0.0112,-0.0091,-0.0043,0.0033,0.0074,0.0031,0.0153,0.0156,0.0177,0.0196,0.0166,0.0243,0.0177,0.0178,0.0179,0,-0.0373,-0.0393,-0.0427,-0.0442,-0.0444,-0.0449,-0.0442,-0.0431,-0.0373,-0.0341,-0.0283,-0.0223,-0.0147,-0.0112,0.0018,-0.0011,0.0061,0.0122,0.0127,0.017,0.0195,0.0236,0.0259,0.0192,0.0191,0.019,0.0189,0,-0.042,-0.0444,-0.0477,-0.0481,-0.0487,-0.0493,-0.0489,-0.0453,-0.0447,-0.0379,-0.0364,-0.0262,-0.0207,-0.0102,0.0029,0.0024,0.0172,0.0184,0.0276,0.0278,0.0286,0.0288,0.0272,0.0271,0.0271,0.0271,0.0271,0,-0.0464,-0.0491,-0.0503,-0.0524,-0.0566,-0.054,-0.0566,-0.0545,-0.0508,-0.0504,-0.0401,-0.037,-0.0201,-0.0095,0.0018,0.0174,0.0169,0.0277,0.0307,0.0271,0.027,0.0251,0.0247,0.0274,0.0274,0.0273,0.0272,0,-0.0508,-0.0514,-0.0561,-0.0582,-0.0591,-0.0617,-0.0627,-0.0645,-0.0593,-0.0583,-0.0561,-0.0436,-0.0288,-0.0122,0.0061,0.0161,0.0303,0.0356,0.0301,0.0323,0.0379,0.0372,0.0466,0.0468,0.0469,0.0471,0.0472,0,-0.0533,-0.056,-0.0612,-0.065,-0.0662,-0.0693,-0.0723,-0.0692,-0.07,-0.063,-0.0626,-0.0478,-0.0372,-0.0084,0.0129,0.0346,0.0346,0.0433,0.0423,0.0381,0.0401,0.0392,0.0384,0.0417,0.0417,0.0418,0.0418,0,-0.0583,-0.0599,-0.0641,-0.0725,-0.0769,-0.0819,-0.0843,-0.086,-0.0819,-0.0802,-0.0739,-0.0644,-0.034,-0.0088,0.0214,0.0329,0.0399,0.0449,0.0433,0.0369,0.0341,0.0358,0.0351,0.0421,0.0421,0.0421,0.0421,0.0421,-0.0618,-0.0664,-0.0725,-0.0802,-0.0865,-0.093,-0.0971,-0.0984,-0.1,-0.0951,-0.0831,-0.0668,-0.0378,0.0046,0.0266,0.0467,0.0459,0.0503,0.0499,0.0495,0.0471,0.0447,0.0542,0.0542,0.0543,0.0543,0.0543,0,-0.066,-0.0718,-0.08,-0.0893,-0.098,-0.0991,-0.1048,-0.1072,-0.1102,-0.101,-0.0919,-0.0612,-0.0286,0.0014,0.0343,0.0539,0.0518,0.0559,0.0502,0.0497,0.0493,0.0467,0.0539,0.0539,0.054,0.054,0,0,-0.0686,-0.0773,-0.0822,-0.0974,-0.1042,-0.114,-0.1176,-0.1197,-0.1144,-0.1077,-0.0938,-0.0686,-0.0297,-0.0062,0.0202,0.0378,0.0372,0.0383,0.0364,0.0258,0.0251,0.0439,0.0391,0,0,0,0,0]}],[{"header":{"parameterUnit":"m.s-1","parameterCategory":2,"la1":30.2991,"la2":30.254,"lo1":-89.0895,"lo2":-89.0444,"dy":0.0017,"dx":0.0017,"nx":28,"ny":28,"refTime":"2024-08-24T09:00:00:Z","depth":"4","parameterNumber":2,"parameterNumberName":"U-component_of_CURRENTS"},"data":[0,0,0,0,0,0,0,0,0,0,0,0,0,0,0,0,0,0,0,0,0,0,0,0,0,0,0,0,0,0,0,0,0,0,0,0,0,0,0,0,0,0,0,0,0,0,0,0,0,0,0,0,0,0,0,0,0,0,-0.1258,-0.1259,0,-0.1303,-0.1304,-0.1304,-0.1324,-0.1324,-0.1324,-0.1324,-0.1354,-0.1355,-0.1355,0,0,0,0,0,0,0,0,0,0,0,0,0,-0.1187,-0.1188,-0.1258,-0.1259,-0.126,-0.1303,-0.1304,-0.1304,-0.1324,-0.1324,-0.1324,-0.1324,-0.1354,-0.1355,-0.1355,0,0,0,0,0,0,0,0,0,0,0,0,0,-0.1222,-0.1189,-0.1258,-0.1276,-0.1279,-0.1303,-0.1304,-0.1304,-0.1324,-0.1324,-0.1324,-0.1324,-0.1354,-0.1355,-0.1356,-0.1358,0,0,-0.1359,-0.1359,0,0,0,0,0,0,0,0,-0.122,-0.1224,-0.1273,-0.1275,-0.1278,-0.131,-0.129,-0.1322,-0.1324,-0.1304,-0.1324,-0.1324,-0.1339,-0.1341,-0.1347,-0.1359,-0.136,-0.1359,-0.1359,-0.136,-0.136,0,0,0,0,0,0,0,-0.1217,-0.1222,-0.1274,-0.1274,-0.1277,-0.1282,-0.1287,-0.1296,-0.1318,-0.1306,-0.1308,-0.1316,-0.134,-0.1346,-0.1347,-0.1361,-0.1359,-0.136,-0.136,-0.1361,-0.1433,-0.1434,0,0,0,0,0,0,-0.1216,-0.122,-0.1272,-0.1275,-0.1251,-0.1283,-0.1289,-0.1298,-0.1318,-0.1322,-0.1316,-0.1317,-0.1344,-0.1346,-0.1349,-0.1411,-0.136,-0.1361,-0.1361,-0.1432,-0.1433,-0.1435,0,0,0,0,0,0,-0.1215,-0.122,-0.1271,-0.125,-0.1257,-0.1284,-0.1294,-0.1298,-0.1324,-0.1327,-0.133,-0.134,-0.1344,-0.1347,-0.1381,-0.141,-0.1361,-0.1362,-0.143,-0.1432,-0.1434,-0.1498,0,0,0,0,0,0,-0.1212,-0.122,-0.1236,-0.125,-0.1259,-0.1302,-0.1295,-0.1299,-0.1329,-0.1331,-0.1348,-0.135,-0.1344,-0.1379,-0.1382,-0.141,-0.1363,-0.1428,-0.1431,-0.1433,-0.1494,-0.1501,-0.1508,0,0,0,0,0,-0.121,-0.1228,-0.1237,-0.1244,-0.1277,-0.1304,-0.1309,-0.1326,-0.133,-0.1348,-0.1363,-0.135,-0.1396,-0.1381,-0.1384,-0.1413,-0.1427,-0.143,-0.1433,-0.1491,-0.15,-0.1508,0,0,0,0,0,0,-0.1207,-0.1233,-0.1242,-0.1268,-0.1293,-0.1308,-0.1329,-0.1339,-0.1365,-0.1371,-0.1369,-0.1373,-0.1412,-0.1404,-0.1388,-0.1441,-0.1409,-0.1413,-0.1452,-0.1461,-0.1468,-0.1465,-0.1364,0,0,0,0,0,-0.1214,-0.1234,-0.1259,-0.1282,-0.1297,-0.1317,-0.1334,-0.1347,-0.1367,-0.1379,-0.1392,-0.1406,-0.1423,-0.1436,-0.1447,-0.1478,-0.1466,-0.1497,-0.1505,-0.1511,-0.151,-0.152,-0.1528,-0.1444,-0.1444,-0.1444,0,0,-0.1221,-0.1237,-0.125,-0.1283,-0.1302,-0.1333,-0.1328,-0.1361,-0.1391,-0.1377,-0.1427,-0.1433,-0.1437,-0.1473,-0.1489,-0.1473,-0.1531,-0.1514,-0.152,-0.1516,-0.1524,-0.1532,-0.1539,-0.1446,-0.1446,-0.1446,0,0,-0.1236,-0.1258,-0.1281,-0.1305,-0.1342,-0.1356,-0.1372,-0.1403,-0.1426,-0.1468,-0.1467,-0.1495,-0.152,-0.1532,-0.1539,-0.1592,-0.1568,-0.1595,-0.1631,-0.1641,-0.1648,-0.1654,-0.1658,-0.1663,-0.1599,-0.1599,-0.1599,0,-0.1246,-0.1274,-0.1293,-0.1322,-0.1348,-0.137,-0.1404,-0.1432,-0.1472,-0.1495,-0.1493,-0.1543,-0.1549,-0.159,-0.1609,-0.1609,-0.1604,-0.1599,-0.165,-0.1655,-0.166,-0.1663,-0.1668,-0.1603,-0.1602,-0.1602,-0.1602,0,-0.1272,-0.1307,-0.1323,-0.1367,-0.1398,-0.1431,-0.147,-0.1507,-0.1534,-0.1557,-0.161,-0.1622,-0.1646,-0.1658,-0.165,-0.1692,-0.1674,-0.1658,-0.1627,-0.1672,-0.1672,-0.1677,-0.1608,-0.1606,-0.1605,-0.1605,0,0,-0.1259,-0.1329,-0.1337,-0.1368,-0.1426,-0.1451,-0.151,-0.1563,-0.1602,-0.1642,-0.1687,-0.1723,-0.1725,-0.1732,-0.1731,-0.1743,-0.1778,-0.1717,-0.1715,-0.1718,-0.1796,-0.1697,-0.1692,-0.1768,-0.1769,-0.1769,-0.1785,0,-0.1275,-0.1333,-0.1368,-0.1431,-0.1464,-0.151,-0.1561,-0.1614,-0.1655,-0.1705,-0.173,-0.1769,-0.1756,-0.177,-0.1783,-0.1777,-0.1791,-0.1775,-0.1753,-0.1752,-0.1657,-0.1694,-0.1773,-0.1788,-0.1789,-0.179,-0.179,0,-0.1283,-0.1323,-0.1385,-0.1463,-0.1483,-0.1527,-0.1606,-0.1654,-0.1727,-0.176,-0.1802,-0.1816,-0.1852,-0.1827,-0.1846,-0.1834,-0.1821,-0.1813,-0.1813,-0.1698,-0.166,-0.1731,-0.1797,-0.1797,-0.1796,-0.1796,-0.1795,0,-0.1248,-0.1332,-0.1382,-0.1409,-0.15,-0.1542,-0.1592,-0.167,-0.1715,-0.1791,-0.1825,-0.1866,-0.1888,-0.1884,-0.1873,-0.186,-0.188,-0.1859,-0.1762,-0.1755,-0.1811,-0.1805,-0.1871,-0.1871,-0.1871,-0.1871,-0.1871,0,-0.1234,-0.1278,-0.1373,-0.1399,-0.1462,-0.1531,-0.1601,-0.1658,-0.1738,-0.1784,-0.1844,-0.1873,-0.1901,-0.1915,-0.1893,-0.1838,-0.1898,-0.177,-0.1752,-0.1839,-0.1836,-0.1814,-0.1808,-0.1872,-0.1872,-0.1871,-0.1871,0,-0.1182,-0.1247,-0.1308,-0.141,-0.1446,-0.1488,-0.1597,-0.1639,-0.1727,-0.1785,-0.1809,-0.1887,-0.1897,-0.1916,-0.1914,-0.1853,-0.1819,-0.1787,-0.1887,-0.1875,-0.1683,-0.1679,-0.1672,-0.1668,-0.1665,-0.1663,-0.1661,0,-0.1157,-0.1183,-0.1296,-0.1331,-0.138,-0.1457,-0.1506,-0.1615,-0.1655,-0.1774,-0.1786,-0.1846,-0.1878,-0.1801,-0.1829,-0.179,-0.1767,-0.174,-0.17,-0.1679,-0.1663,-0.1664,-0.1664,-0.1657,-0.1656,-0.1655,-0.1654,0,-0.1103,-0.1151,-0.1198,-0.1267,-0.1327,-0.1388,-0.1464,-0.1487,-0.16,-0.1701,-0.1717,-0.1721,-0.1738,-0.1729,-0.1716,-0.1686,-0.1749,-0.171,-0.1715,-0.1677,-0.166,-0.1647,-0.1651,-0.1644,-0.1646,-0.1647,-0.1647,0,-0.1057,-0.1072,-0.1134,-0.1183,-0.1256,-0.1286,-0.1345,-0.1393,-0.1449,-0.1582,-0.1583,-0.1649,-0.1724,-0.1676,-0.1663,-0.1628,-0.1594,-0.1532,-0.1546,-0.1557,-0.151,-0.1471,-0.1383,0,0,0,0,0,-0.1002,-0.1007,-0.1046,-0.1092,-0.1157,-0.1198,-0.1301,-0.1362,-0.1478,-0.1451,-0.1513,-0.1523,-0.1512,-0.155,-0.1485,-0.1601,-0.1595,-0.152,-0.153,-0.1589,-0.1601,-0.1555,0,0,0,0,0,0,-0.0967,-0.0998,-0.101,-0.1,-0.1012,-0.1072,-0.1133,-0.1215,-0.1213,-0.1334,-0.1336,-0.1425,-0.1436,-0.1519,-0.145,-0.1459,-0.1434,-0.1567,-0.1563,-0.1583,-0.1593,-0.1602,-0.1559,0,0,0,0,0]},{"header":{"parameterUnit":"m.s-1","parameterCategory":2,"la1":30.2991,"la2":30.254,"lo1":-89.0895,"lo2":-89.0444,"dy":0.0017,"dx":0.0017,"nx":28,"ny":28,"refTime":"2024-08-24T09:00:00:Z","depth":"4","parameterNumber":3,"parameterNumberName":"V-component_of_CURRENTS"},"data":[0,0,0,0,0,0,0,0,0,0,0,0,0,0,0,0,0,0,0,0,0,0,0,0,0,0,0,0,0,0,0,0,0,0,0,0,0,0,0,0,0,0,0,0,0,0,0,0,0,0,0,0,0,0,0,0,0,0,-0.0098,-0.0098,0,-0.0046,-0.0046,-0.0045,-0.0014,-0.0014,-0.0014,-0.0014,0.0049,0.0051,0.0052,0,0,0,0,0,0,0,0,0,0,0,0,0,-0.0114,-0.0114,-0.0098,-0.0098,-0.0097,-0.0046,-0.0046,-0.0045,-0.0014,-0.0014,-0.0014,-0.0014,0.0049,0.005,0.0052,0,0,0,0,0,0,0,0,0,0,0,0,0,-0.0089,-0.0114,-0.0099,-0.0076,-0.0074,-0.0047,-0.0046,-0.0045,-0.0014,-0.0014,-0.0014,-0.0014,0.0048,0.005,0.0053,0.0064,0,0,0.006,0.0061,0,0,0,0,0,0,0,0,-0.009,-0.0088,-0.008,-0.0078,-0.0075,-0.0037,-0.0028,-0.0008,-0.0014,-0.0036,-0.0014,-0.0014,0.0021,0.0026,0.0035,0.0067,0.007,0.006,0.0062,0.0063,0.0063,0,0,0,0,0,0,0,-0.0092,-0.009,-0.0077,-0.0079,-0.0076,-0.0049,-0.0046,-0.0024,-0.0009,-0.0034,-0.0032,-0.0027,0.0023,0.0033,0.0037,0.0071,0.006,0.0062,0.0064,0.0065,0.0112,0.0112,0,0,0,0,0,0,-0.0103,-0.0092,-0.0079,-0.0076,-0.0083,-0.0049,-0.0045,-0.0049,-0.0009,-0.0003,-0.0027,-0.0026,0.0029,0.0034,0.004,0.0049,0.0063,0.0065,0.0066,0.0113,0.0112,0.0112,0,0,0,0,0,0,-0.0103,-0.0102,-0.0081,-0.0082,-0.0078,-0.005,-0.0053,-0.0048,-0.0038,-0.0004,0.0003,-0.0023,0.0029,0.0036,0.0057,0.0052,0.0066,0.0068,0.0113,0.0113,0.0112,0.0073,0,0,0,0,0,0,-0.0104,-0.0103,-0.0108,-0.0084,-0.0078,-0.0072,-0.0053,-0.0047,-0.0035,-0.0033,0.0002,0.0008,0.003,0.0054,0.006,0.0056,0.007,0.0113,0.0113,0.0112,0.0074,0.0071,0.0069,0,0,0,0,0,-0.0105,-0.0114,-0.0109,-0.0107,-0.0087,-0.0072,-0.0067,-0.0045,-0.0036,-0.0035,-0.0009,0.0007,0.0056,0.0056,0.0063,0.0059,0.0113,0.0113,0.0112,0.0076,0.0072,0.0069,0,0,0,0,0,0,-0.0122,-0.0111,-0.0105,-0.0109,-0.0095,-0.0067,-0.0063,-0.0048,-0.0027,-0.0025,0.0008,0.0016,0.0032,0.0051,0.005,0.0072,0.0086,0.0087,0.0056,0.0052,0.005,0.0036,0.0072,0,0,0,0,0,-0.013,-0.0135,-0.0116,-0.0121,-0.0115,-0.009,-0.008,-0.0067,-0.0045,-0.0036,-0.0012,0.0014,0.0036,0.0048,0.007,0.0084,0.011,0.0085,0.0082,0.008,0.0074,0.0111,0.0111,0.0111,0.0111,0.0111,0,0,-0.0138,-0.0132,-0.0135,-0.0125,-0.0111,-0.0111,-0.0084,-0.0075,-0.0073,-0.0032,-0.0022,0.0005,0.0038,0.0053,0.0061,0.0068,0.0094,0.0079,0.0077,0.0072,0.011,0.011,0.011,0.0111,0.0111,0.0111,0,0,-0.0159,-0.0153,-0.0163,-0.0155,-0.014,-0.0126,-0.0126,-0.0102,-0.0089,-0.0074,-0.0045,-0.0022,0.001,0.0033,0.0049,0.0044,0.0078,0.005,0.0026,0.0061,0.0062,0.0062,0.0098,0.0102,0.0048,0.0048,0.0048,0,-0.0169,-0.0182,-0.0163,-0.0169,-0.0167,-0.0138,-0.0148,-0.013,-0.0102,-0.0093,-0.0079,-0.0028,-0.0,0.0022,0.002,0.0037,0.0064,0.0036,0.0058,0.0059,0.006,0.0097,0.0101,0.0046,0.0047,0.0047,0.0047,0,-0.0195,-0.0206,-0.021,-0.0213,-0.0207,-0.0211,-0.0188,-0.0181,-0.0162,-0.0139,-0.0112,-0.0069,-0.004,-0.0026,-0.0004,0.0017,0.0036,0.005,0.0065,0.0057,0.0097,0.0102,0.0044,0.0044,0.0045,0.0045,0,0,-0.0221,-0.0229,-0.0231,-0.0245,-0.0232,-0.0234,-0.0232,-0.0221,-0.0223,-0.0182,-0.0172,-0.0126,-0.0096,-0.0077,-0.004,-0.0009,0.0027,0.002,0.0023,0.0053,0.0109,0.0101,0.0107,0.0047,0.0048,0.0048,0.0134,0,-0.0248,-0.0279,-0.027,-0.03,-0.0314,-0.0293,-0.0296,-0.028,-0.0257,-0.0239,-0.018,-0.0154,-0.0116,-0.01,-0.0062,0.0005,0.004,0.0002,0.0114,0.0117,0.0109,0.0113,0.005,0.0138,0.014,0.0141,0.0141,0,-0.0275,-0.0295,-0.033,-0.0352,-0.0356,-0.0367,-0.0373,-0.0369,-0.0331,-0.0308,-0.0266,-0.0217,-0.0158,-0.0126,-0.0016,-0.004,0.0026,0.008,0.0085,0.0094,0.012,0.0148,0.0152,0.0151,0.0151,0.015,0.0149,0,-0.0306,-0.0336,-0.037,-0.0376,-0.0393,-0.0405,-0.041,-0.0391,-0.0392,-0.0346,-0.0335,-0.0256,-0.0211,-0.0121,-0.0006,-0.0009,0.0119,0.0131,0.0188,0.0189,0.0187,0.0186,0.0204,0.0204,0.0203,0.0203,0.0203,0,-0.0336,-0.0365,-0.0391,-0.041,-0.0455,-0.0443,-0.0477,-0.0467,-0.0447,-0.0449,-0.037,-0.0346,-0.0207,-0.0116,-0.0016,0.0105,0.0115,0.0183,0.0208,0.0169,0.0165,0.0192,0.0189,0.0206,0.0206,0.0205,0.0205,0,-0.036,-0.0376,-0.0424,-0.0457,-0.0472,-0.05,-0.0528,-0.055,-0.0518,-0.0516,-0.05,-0.0401,-0.0279,-0.0141,0.0017,0.0089,0.0207,0.0247,0.0197,0.0219,0.0255,0.025,0.0314,0.0314,0.0315,0.0315,0.0315,0,-0.0374,-0.04,-0.0463,-0.0502,-0.0521,-0.0562,-0.0595,-0.0586,-0.0597,-0.0552,-0.0546,-0.0432,-0.0353,-0.0133,0.0012,0.0206,0.023,0.0288,0.0267,0.0247,0.0266,0.026,0.0254,0.0316,0.0316,0.0316,0.0316,0,-0.0402,-0.0426,-0.0467,-0.0549,-0.0599,-0.0654,-0.0687,-0.0697,-0.0678,-0.0656,-0.0582,-0.0463,-0.0322,-0.0142,0.0016,0.0151,0.0247,0.0292,0.0292,0.0272,0.0251,0.0267,0.0261,0.0317,0.0317,0.0317,0.0317,0,-0.0422,-0.046,-0.0521,-0.059,-0.0664,-0.072,-0.0734,-0.0733,-0.0732,-0.0666,-0.0642,-0.0484,-0.0382,-0.017,-0.0029,0.0109,0.0137,0.0168,0.0174,0.0175,0.0107,0.0058,0.0085,0,0,0,0,0,-0.0436,-0.0485,-0.0558,-0.0637,-0.0712,-0.0752,-0.0788,-0.0786,-0.0762,-0.0722,-0.0678,-0.0546,-0.0325,-0.022,-0.0084,-0.0027,0.0157,0.0135,0.0194,0.0324,0.0323,0.0266,0,0,0,0,0,0,-0.0449,-0.0517,-0.056,-0.0662,-0.0721,-0.0798,-0.0824,-0.0809,-0.0769,-0.0724,-0.06,-0.0529,-0.0305,-0.0405,-0.0087,-0.0043,0.0008,0.0246,0.0249,0.0325,0.0323,0.0322,0.0264,0,0,0,0,0]}]]